TimeAKST,TemperatureF,Dew PointF,Humidity,Sea Level PressureIn,VisibilityMPH,Wind Direction,Wind SpeedMPH,Gust SpeedMPH,PrecipitationIn,Events,Conditions,WindDirDegrees,DateUTC
12:53 AM,42.1,30.0,62,29.52,10.0,North,8.1,-,N/A,,Mostly Cloudy,360,2012-11-11 09:53:00
1:53 AM,39.0,30.9,73,29.52,10.0,North,11.5,-,N/A,,Overcast,360,2012-11-11 10:53:00
3:53 AM,37.0,30.0,76,29.54,10.0,North,8.1,-,N/A,,Clear,350,2012-11-11 12:53:00
4:53 AM,37.9,30.0,73,29.54,10.0,North,4.6,-,N/A,,Mostly Cloudy,360,2012-11-11 13:53:00
5:53 AM,37.0,30.0,76,29.55,10.0,North,4.6,-,N/A,,Overcast,350,2012-11-11 14:53:00
6:53 AM,37.9,30.0,73,29.55,10.0,NNW,6.9,-,N/A,,Overcast,330,2012-11-11 15:53:00
7:53 AM,36.0,28.9,76,29.56,10.0,North,3.5,-,N/A,,Mostly Cloudy,350,2012-11-11 16:53:00
9:53 AM,36.0,30.0,79,29.59,10.0,NNW,6.9,-,N/A,,Clear,340,2012-11-11 18:53:00
10:53 AM,39.9,30.9,70,29.60,10.0,NNW,5.8,-,N/A,,Clear,330,2012-11-11 19:53:00
11:53 AM,42.1,32.0,67,29.61,10.0,North,8.1,-,N/A,,Clear,360,2012-11-11 20:53:00
12:53 PM,44.1,30.9,60,29.61,10.0,NNW,5.8,-,N/A,,Clear,330,2012-11-11 21:53:00
1:53 PM,42.1,30.9,65,29.62,10.0,Calm,Calm,-,N/A,,Clear,0,2012-11-11 22:53:00
2:53 PM,42.1,35.1,76,29.63,10.0,Calm,Calm,-,N/A,,Clear,0,2012-11-11 23:53:00
3:53 PM,39.9,34.0,79,29.65,10.0,Calm,Calm,-,N/A,,Clear,0,2012-11-12 00:53:00
4:53 PM,36.0,30.9,82,29.67,10.0,Calm,Calm,-,N/A,,Clear,0,2012-11-12 01:53:00
6:53 PM,35.1,30.0,82,29.70,10.0,North,5.8,-,N/A,,Clear,360,2012-11-12 03:53:00
7:53 PM,35.1,30.0,82,29.71,10.0,North,6.9,-,N/A,,Clear,350,2012-11-12 04:53:00
8:53 PM,35.1,30.0,82,29.72,10.0,North,6.9,-,N/A,,Clear,10,2012-11-12 05:53:00
9:53 PM,36.0,30.0,79,29.74,10.0,North,11.5,-,N/A,,Scattered Clouds,360,2012-11-12 06:53:00
10:53 PM,35.1,30.0,82,29.74,10.0,North,11.5,18.4,N/A,,Clear,10,2012-11-12 07:53:00
11:53 PM,35.1,30.0,82,29.75,10.0,North,13.8,-,N/A,,Clear,350,2012-11-12 08:53:00